[[{"header":{"parameterUnit":"m.s-1","parameterCategory":1,"la1":30.2992,"la2":30.254,"lo1":-89.0895,"lo2":-89.0443,"dy":0.0025,"dx":0.0025,"nx":19,"ny":19,"refTime":"2026-04-16T21:00:00:Z","depth":0,"parameterNumber":2,"parameterNumberName":"U-component_of_WINDS"},"data":[0,0,0,0.5608,0.5611,0.5761,0.5762,0.5939,0.594,0,0,0,0,0,0,0,0,0,0,0,0.5552,0.5553,0.5607,0.5611,0.5761,0.5762,0.5939,0.594,0,0,0,0,0,0,0,0,0,0,0,0.5552,0.5553,0.5554,0.5611,0.5761,0.5762,0.5938,0.5831,0,0,0,0,0,0,0,0,0,0,0.5687,0.5625,0.5552,0.5554,0.5612,0.5761,0.5762,0.5826,0.5837,0.5864,0,0.5882,0,0.5914,0.5951,0.5952,0,0,0,0.562,0.5615,0.5665,0.5554,0.5613,0.5761,0.5696,0.5833,0.5846,0.5879,0.5885,0.5892,0.5917,0.5952,0.5953,0.607,0.607,0,0,0.5611,0.5574,0.5656,0.5673,0.5647,0.5691,0.57,0.5841,0.5846,0.5886,0.5897,0.592,0.5953,0.5954,0.607,0.607,0,0,0,0.5582,0.5567,0.5615,0.5666,0.5694,0.5695,0.5706,0.584,0.5858,0.5899,0.5922,0.5954,0.5956,0.607,0.607,0.604,0,0,0,0.5577,0.555,0.5611,0.5589,0.5691,0.5768,0.5701,0.5848,0.5865,0.5921,0.5954,0.5958,0.607,0.607,0.604,0.6032,0,0,0,0.5546,0.5547,0.5564,0.5587,0.565,0.5767,0.5794,0.5853,0.5879,0.5952,0.5958,0.607,0.607,0.6041,0.6033,0.6052,0,0,0,0.5503,0.5536,0.5563,0.561,0.5648,0.5746,0.5793,0.5868,0.5927,0.5955,0.607,0.607,0.6041,0.6034,0.6052,0.606,0.606,0,0,0.5524,0.5538,0.5568,0.5597,0.5679,0.5726,0.5806,0.5896,0.5938,0.6024,0.6028,0.604,0.6033,0.6052,0.6072,0.6072,0,0,0,0.5562,0.5584,0.5614,0.5667,0.5735,0.5794,0.5876,0.5909,0.5984,0.5974,0.6053,0.605,0.6063,0.6068,0.6068,0.6081,0.6071,0.6071,0.6071,0.5539,0.559,0.5644,0.5712,0.5763,0.5847,0.5893,0.5953,0.5991,0.6008,0.6034,0.604,0.6046,0.6046,0.6059,0.6043,0.6043,0.6043,0.6042,0.5575,0.5614,0.5661,0.5731,0.5784,0.5844,0.5926,0.595,0.6014,0.6025,0.6039,0.6047,0.6044,0.6058,0.6041,0.6041,0.6041,0.6041,0.6042,0.5566,0.5593,0.5632,0.5714,0.5771,0.5841,0.5899,0.5947,0.5992,0.6005,0.6038,0.6039,0.6045,0.6017,0.6017,0.6017,0.6017,0.6017,0.6017,0.5541,0.5586,0.5629,0.5703,0.5743,0.5803,0.5886,0.5928,0.5986,0.6016,0.6017,0.6052,0.6033,0.6028,0.6018,0.6018,0.6018,0.6018,0.6018,0.5559,0.5562,0.5628,0.5668,0.576,0.5814,0.5873,0.5953,0.5994,0.6022,0.6055,0.6033,0.6051,0.6051,0.6047,0.6043,0.6043,0.6043,0.6043,0.5551,0.5564,0.5642,0.5703,0.5768,0.5828,0.5902,0.5967,0.6036,0.6064,0.6072,0.607,0.6069,0.6087,0.6087,0.6084,0.609,0.609,0.609,0.5565,0.5586,0.5639,0.5705,0.578,0.5844,0.5915,0.5984,0.6063,0.6093,0.6088,0.6086,0.6084,0.608,0.6111,0.6109,0.6104,0,0]},{"header":{"parameterUnit":"m.s-1","parameterCategory":1,"la1":30.2992,"la2":30.254,"lo1":-89.0895,"lo2":-89.0443,"dy":0.0025,"dx":0.0025,"nx":19,"ny":19,"refTime":"2026-04-16T21:00:00:Z","depth":0,"parameterNumber":3,"parameterNumberName":"V-component_of_WINDS"},"data":[0,0,0,3.7186,3.7186,3.7202,3.7202,3.7222,3.7222,0,0,0,0,0,0,0,0,0,0,0,3.718,3.718,3.7186,3.7186,3.7202,3.7202,3.7222,3.7222,0,0,0,0,0,0,0,0,0,0,0,3.718,3.718,3.718,3.7186,3.7202,3.7202,3.7222,3.721,0,0,0,0,0,0,0,0,0,0,3.7195,3.7189,3.718,3.718,3.7186,3.7202,3.7202,3.721,3.7211,3.7215,0,3.7217,0,3.722,3.7224,3.7224,0,0,0,3.7187,3.7188,3.7193,3.718,3.7186,3.7202,3.7195,3.7211,3.7212,3.7217,3.7217,3.7218,3.7221,3.7224,3.7224,3.7243,3.7243,0,0,3.7186,3.7182,3.7192,3.7194,3.719,3.7194,3.7195,3.7211,3.7212,3.7218,3.7219,3.7221,3.7224,3.7224,3.7243,3.7243,0,0,0,3.7183,3.7182,3.7187,3.7193,3.7196,3.7195,3.7196,3.7212,3.7214,3.7219,3.7221,3.7224,3.7224,3.7243,3.7243,3.7244,0,0,0,3.7183,3.718,3.7186,3.7184,3.7195,3.7204,3.7196,3.7212,3.7214,3.7221,3.7224,3.7224,3.7243,3.7243,3.7243,3.7244,0,0,0,3.718,3.718,3.7182,3.7184,3.7191,3.7203,3.7206,3.7213,3.7216,3.7224,3.7225,3.7243,3.7243,3.7243,3.7244,3.7249,0,0,0,3.7175,3.718,3.7182,3.7189,3.7191,3.7203,3.7206,3.7216,3.7223,3.7224,3.7243,3.7243,3.7243,3.7244,3.7249,3.7254,3.7255,0,0,3.718,3.7181,3.7185,3.7187,3.7199,3.7201,3.7213,3.7223,3.7226,3.7238,3.7238,3.7243,3.7244,3.7249,3.7263,3.7264,0,0,0,3.7186,3.7189,3.7193,3.72,3.7207,3.7215,3.7223,3.7227,3.7237,3.7231,3.7247,3.7247,3.725,3.7253,3.7254,3.7258,3.7244,3.7244,3.7244,3.7186,3.7192,3.7201,3.7209,3.7216,3.7226,3.7233,3.724,3.7242,3.7246,3.725,3.7257,3.726,3.726,3.7264,3.7252,3.7252,3.7252,3.7252,3.7194,3.72,3.7206,3.7216,3.7223,3.7232,3.7243,3.7246,3.7256,3.7254,3.7258,3.7256,3.7261,3.7265,3.7252,3.7252,3.7252,3.7252,3.7252,3.7195,3.72,3.7205,3.7218,3.7227,3.7236,3.7247,3.7252,3.7258,3.7261,3.7266,3.7266,3.7268,3.7263,3.7263,3.7263,3.7263,3.7263,3.7263,3.7194,3.7201,3.7209,3.722,3.7227,3.7237,3.7249,3.7256,3.7265,3.7269,3.7269,3.7273,3.7261,3.7258,3.7264,3.7264,3.7264,3.7263,3.7263,3.7201,3.7201,3.7213,3.722,3.7235,3.7246,3.7254,3.7268,3.7275,3.7281,3.7285,3.7275,3.7276,3.7275,3.7273,3.7282,3.7282,3.7282,3.7282,3.7202,3.7204,3.7219,3.723,3.7242,3.7251,3.7267,3.7278,3.7289,3.7295,3.7294,3.7292,3.7291,3.7293,3.7292,3.729,3.7304,3.7304,3.7304,3.7207,3.7211,3.7222,3.7233,3.7247,3.7258,3.7274,3.7288,3.7301,3.7305,3.7299,3.7298,3.7295,3.7293,3.7295,3.7294,3.729,0,0]}]]